📊 Raw Sensor Data

Showing records 48426 to 48450 of 85,101 total

ID Distance (ft) Battery V Battery A Int Temp (°F) Int Humid (%) Ext Temp (°F) Solar V RSSI SNR Time Stamp
36688 15.0 3.93 0 71 38 62 5.10 -77 8 04/02/2025 03:15 PM
36687 15.0 3.93 0 71 37 62 5.10 -80 7 04/02/2025 03:00 PM
36686 -- 3.93 0 71 37 62 5.10 -86 6 04/02/2025 02:45 PM
36685 -- 3.98 0 71 37 61 5.10 -79 8 04/02/2025 02:30 PM
36684 15.1 3.93 0 70 37 60 5.10 -78 8 04/02/2025 02:15 PM
36683 15.1 3.94 0 69 37 60 5.10 -80 8 04/02/2025 02:00 PM
36682 -- 4.12 0 68 37 59 5.10 -80 7 04/02/2025 01:45 PM
36681 15.0 3.93 0 67 37 59 5.10 -81 7 04/02/2025 01:30 PM
36680 -- 3.93 0 66 37 59 5.10 -80 8 04/02/2025 01:16 PM
36679 -- 3.93 0 64 38 58 5.10 -78 9 04/02/2025 01:00 PM
36678 -- 3.93 0 63 38 57 5.10 -79 8 04/02/2025 12:45 PM
36677 -- 3.93 0 62 38 56 5.10 -80 9 04/02/2025 12:30 PM
36676 15.2 3.93 0 61 38 56 5.10 -82 8 04/02/2025 12:15 PM
36675 15.1 3.93 0 60 38 55 5.10 -83 6 04/02/2025 12:00 PM
36674 -- 3.93 0 59 38 55 5.10 -81 9 04/02/2025 11:45 AM
36673 -- 3.93 0 58 38 54 5.10 -78 8 04/02/2025 11:30 AM
36672 -- 4.00 0 57 38 55 5.10 -81 8 04/02/2025 11:16 AM
36671 -- 3.93 0 55 38 53 5.10 -86 7 04/02/2025 10:45 AM
36670 15.0 3.93 0 55 38 53 5.10 -82 7 04/02/2025 10:30 AM
36669 -- 4.03 0 54 37 53 5.10 -82 8 04/02/2025 10:15 AM
36668 -- 3.94 0 52 37 52 5.10 -85 7 04/02/2025 10:00 AM
36667 -- 3.93 0 51 37 52 5.10 -81 8 04/02/2025 09:45 AM
36666 -- 3.93 0 49 38 50 5.10 -84 8 04/02/2025 09:30 AM
36665 -- 4.02 0 47 38 50 5.10 -85 9 04/02/2025 09:15 AM
36664 -- 4.08 0 46 38 48 5.10 -83 9 04/02/2025 09:00 AM